{"data":{"norad_id":47532,"epoch":"2026-09-20T23:56:23.288928Z","epoch_age_seconds":39279,"freshness":"FRESH","line1":"1 47532U 21007A   26263.99749177 -.00000006  00000+0  12863-3 0  9992","line2":"2 47532  63.4019 256.8799 0184348   0.8260 359.3036 13.45453659277129","mean_motion":13.45453659,"eccentricity":0.0184348,"inclination_deg":63.4019,"raan_deg":256.8799,"arg_perigee_deg":0.826,"mean_anomaly_deg":359.3036,"bstar":0.00012863,"rev_number":27712,"period_min":107.02709754197,"perigee_km":951.37676206944,"apogee_km":1226.6883161078,"semimajor_km":7467.1695390886,"source":"CELESTRAK","updated_at":"2026-09-21T09:00:07.527209Z"}}